EW1857 Weather Reports


time (UTC)temp
C
wind
direction
speed
KPH
gust
KPH
rain 1hr
cm
rain 24hr
cm
rain mn
cm
humidity
%
barometer
mb
20260503215916 13 0.0 0.0 0.00 0.00 0.00 50 1010.7
20260503214921 13 0.0 0.0 0.00 0.00 0.00 50 1010.5
20260503214423 13 0.0 0.0 0.00 0.00 0.00 50 1010.5
20260503213926 13 0.0 0.0 0.00 0.00 0.00 49 1010.4
20260503212920 13 0.0 0.0 0.00 0.00 0.00 49 1010.5
20260503212425 13 0.0 0.0 0.00 0.00 0.00 49 1010.5
20260503211117 14 0.0 0.0 0.00 0.00 0.00 49 1010.6
20260503210417 14 0.0 0.0 0.00 0.00 0.00 51 1010.6
20260503205926 13 0.0 0.0 0.00 0.00 0.00 50 1010.6
20260503205423 13 0.0 0.0 0.00 0.00 0.00 51 1010.6
20260503204925 13 0.0 0.0 0.00 0.00 0.00 51 1010.7
20260503203916 14 0.0 0.0 0.00 0.00 0.00 52 1010.8
20260503203425 14 0.0 0.0 0.00 0.00 0.00 52 1010.7
20260503202419 14 0.0 0.0 0.00 0.00 0.00 51 1011.1
20260503201925 14 0.0 0.0 0.00 0.00 0.00 51 1011.1
20260503200917 15 0.0 0.0 0.00 0.00 0.00 50 1011.1
20260503200425 15 0.0 0.0 0.00 0.00 0.00 50 1011.1
20260503195926 15 0.0 0.0 0.00 0.00 0.00 50 1011.1
20260503194916 15 0.0 0.0 0.00 0.00 0.00 50 1010.8
20260503193916 15 0.0 0.0 0.00 0.00 0.00 48 1010.8
20260503192921 16 0.0 0.0 0.00 0.00 0.00 47 1010.9
20260503192425 16 0.0 0.0 0.00 0.00 0.00 47 1010.8
20260503191525 16 0.0 0.0 0.00 0.00 0.00 47 1010.8
20260503190525 16 0.0 0.0 0.00 0.00 0.00 46 1010.6
20260503185417 16 0.0 0.0 0.00 0.00 0.00 46 1010.6
20260503184418 17 0.0 0.0 0.00 0.00 0.00 45 1010.3
20260503183923 17 0.0 0.0 0.00 0.00 0.00 45 1010.3
20260503182625 17 0.0 0.0 0.00 0.00 0.00 46 1010.0
20260503181624 17 0.0 0.0 0.00 0.00 0.00 46 1010.0
20260503180619 17 0.0 0.0 0.00 0.00 0.00 47 1010.0
20260503175916 17 0.0 0.0 0.00 0.00 0.00 51 1009.9
20260503174919 18 0.0 0.0 0.00 0.00 0.00 42 1010.0
20260503174424 18 0.0 0.0 0.00 0.00 0.00 42 1010.0
20260503173417 18 0.0 0.0 0.00 0.00 0.00 40 1009.9
20260503172416 19 0.0 0.0 0.00 0.00 0.00 40 1009.8
20260503171416 19 0.0 0.0 0.00 0.00 0.00 40 1009.9
20260503170925 19 0.0 0.0 0.00 0.00 0.00 39 1010.1
20260503170423 19 0.0 0.0 0.00 0.00 0.00 39 1010.0
20260503150922 21 0.0 0.0 0.00 0.00 0.00 35 1010.5
20260503150423 21 0.0 0.0 0.00 0.00 0.00 35 1010.6
20260503130918 23 0.0 0.0 0.00 0.00 0.00 34 1011.8
20260503130422 23 0.0 0.0 0.00 0.00 0.00 33 1011.8
20260503110816 26 0.0 0.0 0.00 0.00 0.00 30 1013.5
20260503081218 20 0.0 0.0 0.00 0.00 0.00 43 1014.4
20260503080124 18 0.0 0.0 0.00 0.00 0.00 45 1014.4
20260503072917 18 0.0 0.0 0.00 0.00 0.00 48 1014.4
20260503072426 17 0.0 0.0 0.00 0.00 0.00 49 1014.4
20260503071927 17 0.0 0.0 0.00 0.00 0.00 50 1014.4
20260503070921 17 0.0 0.0 0.00 0.00 0.00 52 1014.3
20260503070422 16 0.0 0.0 0.00 0.00 0.00 51 1014.3
20260503054916 11 0.0 0.0 0.00 0.00 0.00 69 1013.8
20260503053920 10 0.0 0.0 0.00 0.00 0.00 70 1013.8
20260503053424 10 0.0 0.0 0.00 0.00 0.00 71 1013.8
20260503052416 9 0.0 0.0 0.00 0.00 0.00 71 1013.9
20260503051415 8 0.0 0.0 0.00 0.00 0.00 72 1013.9
20260503050417 8 0.0 0.0 0.00 0.00 0.00 72 1013.6
20260503045419 7 0.0 0.0 0.00 0.00 0.00 72 1013.6
20260503044924 7 0.0 0.0 0.00 0.00 0.00 72 1013.6
20260503043916 7 0.0 0.0 0.00 0.00 0.00 73 1013.6
20260503043224 7 0.0 0.0 0.00 0.00 0.00 73 1013.6
20260503041917 6 0.0 0.0 0.00 0.00 0.00 73 1013.6
20260503041424 6 0.0 0.0 0.00 0.00 0.00 73 1013.6
20260503040918 6 0.0 0.0 0.00 0.00 0.00 73 1013.5
20260503040423 6 0.0 0.0 0.00 0.00 0.00 73 1013.5
20260503035925 6 0.0 0.0 0.00 0.00 0.00 73 1013.5
20260503035025 6 0.0 0.0 0.00 0.00 0.00 73 1013.5
20260503034017 6 0.0 0.0 0.00 0.00 0.00 73 1013.5
20260503033024 6 0.0 0.0 0.00 0.00 0.00 73 1013.5
20260503031917 6 0.0 0.0 0.00 0.00 0.00 73 1013.6
20260503030916 6 0.0 0.0 0.00 0.00 0.00 73 1013.6
20260503030424 7 0.0 0.0 0.00 0.00 0.00 73 1013.6
20260503025925 7 0.0 0.0 0.00 0.00 0.00 73 1013.6
20260503024920 7 0.0 0.0 0.00 0.00 0.00 73 1013.6
20260503024425 7 0.0 0.0 0.00 0.00 0.00 73 1013.6
20260503023922 7 0.0 0.0 0.00 0.00 0.00 73 1013.6
20260503023426 7 0.0 0.0 0.00 0.00 0.00 73 1013.6
20260503022422 7 0.0 0.0 0.00 0.00 0.00 73 1013.3
20260503021922 7 0.0 0.0 0.00 0.00 0.00 73 1013.3
20260503021423 7 0.0 0.0 0.00 0.00 0.00 72 1013.3
20260503020926 7 0.0 0.0 0.00 0.00 0.00 72 1013.5
20260503020423 7 0.0 0.0 0.00 0.00 0.00 72 1013.6
20260503015924 7 0.0 0.0 0.00 0.00 0.00 72 1013.6
20260503014918 7 0.0 0.0 0.00 0.00 0.00 72 1013.2
20260503014426 7 0.0 0.0 0.00 0.00 0.00 72 1013.3
20260503013416 8 0.0 0.0 0.00 0.00 0.00 72 1013.3
20260503012422 8 0.0 0.0 0.00 0.00 0.00 72 1013.3
20260503011922 8 0.0 0.0 0.00 0.00 0.00 72 1013.3
20260503011425 8 0.0 0.0 0.00 0.00 0.00 72 1013.3
20260503010926 8 0.0 0.0 0.00 0.00 0.00 71 1013.5
20260503010422 8 0.0 0.0 0.00 0.00 0.00 71 1013.5
20260503005927 8 0.0 0.0 0.00 0.00 0.00 71 1013.5
20260503004619 8 0.0 0.0 0.00 0.00 0.00 71 1013.4
20260503003625 8 0.0 0.0 0.00 0.00 0.00 71 1013.4
20260503002917 8 0.0 0.0 0.00 0.00 0.00 70 1013.5
20260503001826 8 0.0 0.0 0.00 0.00 0.00 70 1013.5
20260503000824 9 0.0 0.0 0.00 0.00 0.00 70 1014.0
20260502235917 9 0.0 0.0 0.00 0.00 0.00 70 1014.0
20260502234921 9 0.0 0.0 0.00 0.00 0.00 69 1013.9
20260502234422 9 0.0 0.0 0.00 0.00 0.00 69 1013.9
20260502233321 9 0.0 0.0 0.00 0.00 0.00 68 1013.9
20260502232717 9 0.0 0.0 0.00 0.00 0.00 68 1014.0
20260502231724 10 0.0 0.0 0.00 0.00 0.00 69 1014.0
20260502230425 10 0.0 0.0 0.00 0.00 0.00 67 1014.1
20260502225926 10 0.0 0.0 0.00 0.00 0.00 68 1014.1
20260502225423 10 0.0 0.0 0.00 0.00 0.00 68 1014.1
20260502224924 10 0.0 0.0 0.00 0.00 0.00 68 1014.3
20260502224218 10 0.0 0.0 0.00 0.00 0.00 67 1014.3
20260502222916 10 0.0 0.0 0.00 0.00 0.00 66 1014.4
20260502221923 10 0.0 0.0 0.00 0.00 0.00 66 1014.4
20260502220924 11 0.0 0.0 0.00 0.00 0.00 66 1014.5